Regional Weather Roundup
Issued by NWS Cleveland, OH

Home | Current Version | Previous Version | Graphics & Text | Print | Product List | Glossary On
Versions: 1 2 3 4 5 6 7 8 9 10 11 12 13 14 15 16 17 18 19 20 21 22 23 24 25 26 27 28 29 30 31 32 33 34 35 36 37 38 39 40 41 42 43 44 45 46 47 48 49 50
000
ASUS41 KCLE 061010
RWRCLE
OHIO REGIONAL WEATHER ROUNDUP
NATIONAL WEATHER SERVICE CLEVELAND, OH
500 AM EST SAT FEB 06 2016

NOTE: "FAIR" INDICATES FEW OR NO CLOUDS BELOW 12,000 FEET WITH NO
SIGNIFICANT WEATHER AND/OR OBSTRUCTIONS TO VISIBILITY.

OHZ001>008-015>018-024>027-034-035-043-044-061100-
   NORTHWEST OHIO

CITY           SKY/WX    TMP DP  RH WIND       PRES   REMARKS
DEFIANCE       CLOUDY    26  22  84 SW3       30.31S
FINDLAY        CLOUDY    27  23  85 W6        30.30R WCI  20
TOLEDO EXPRESS PTCLDY    24  20  84 W5        30.29F WCI  18
TOLEDO EXEC    PTCLDY    24  21  88 SW5       30.30F FOG     WCI  18
LIMA           CLOUDY    24  22  91 SW5       30.30R FOG     WCI  18
$$

OHZ009>014-019>023-028>033-038-089-061100-
   NORTHEAST OHIO

CITY           SKY/WX    TMP DP  RH WIND       PRES   REMARKS
CLE-HOPKINS    CLEAR     28  22  78 SW7       30.31R WCI  21
CLE-LAKEFRONT  CLEAR     31  23  72 SW10      30.28S WCI  22
CUY CO. ARPT   NOT AVBL
LORAIN-ELYRIA  CLEAR     28  23  81 W7        30.29S WCI  21
ASHTABULA      CLOUDY    31  21  66 SW8       30.26R WCI  23
AKRON-CANTON   CLOUDY    31  18  58 SW9       30.27R WCI  23
WOOSTER        CLOUDY    27  21  78 W6        30.28R WCI  20
MANSFIELD      CLEAR     25  22  88 SW5       30.27R WCI  19
YOUNGSTOWN     CLOUDY    32  18  56 SW8       30.26R WCI  25
$$

OHZ042-051>053-060>062-070>072-077>081-061100-
  SOUTHWEST OHIO

CITY           SKY/WX    TMP DP  RH WIND       PRES   REMARKS
CINC-COVINGTON MOCLDY    26  23  88 CALM      30.33
CINC-LUNKEN    PTCLDY    26  24  92 CALM      30.36S
HAMILTON       CLOUDY    23  21  92 CALM      30.35S
DAYTON         CLOUDY    23  21  92 CALM      30.32R
WRIGHT-PAT AFB PTCLDY    24  21  91 CALM      30.33R
DAYTON GENERAL CLEAR     24  20  84 CALM      30.31S FOG
WILMINGTON     PTCLDY    25  22  88 W5        30.32R WCI  19
$$

OHZ036-037-039>041-045>050-054>059-063>069-073>076-082>088-061100-
  CENTRAL AND SOUTHEAST OHIO

CITY           SKY/WX    TMP DP  RH WIND       PRES   REMARKS
COLUMBUS       PTCLDY    27  21  78 CALM      30.31S
OSU AIRPORT    CLEAR     27  23  85 CALM      30.31R
BOLTON FIELD   CLEAR     24  22  93 CALM      30.32R
RICKENBACK AFB CLEAR     27  21  76 W3        30.32R
NEWARK         CLOUDY    27  19  72 CALM      30.30S
MARION         CLOUDY    26  20  77 W6        30.30R WCI  19
LANCASTER      CLOUDY    27  18  69 W3        30.32R
ZANESVILLE     CLOUDY    32  16  51 S3        30.31R
NEW PHILLY     CLOUDY    32  17  54 VRB3      30.31R
$$



USA.gov is the U.S. government's official web portal to all federal, state and local government web resources and services.